INTELSAT 36 (IS-36)

Last updated on Thu Nov 21 2024 00:02:43 GMT+0000 (Coordinated Universal Time)

1 41747U 16053A 24324.95150562 -.00000023 00000+0 00000+0 0 9990 2 41747 0.0134 348.5912 0001754 352.8895 129.0356 1.00270385 30197
UTC large
Height (km)
Speed (km/s)
/
Latitude / Longitude
Inclination (degrees)
Orbital Period (minutes)
Azimuth
Elevation
Range (km)
Doppler Factor

Next 0 passes for location: London (51.5072 / 0.1276)

Sorry there are no passes over London.